Tracking 29892 objects as of 21-Nov-2024
HD Live streaming from Space Station
objects crossing your sky now

FENGYUN 1C DEB

Track FENGYUN 1C DEB now!
10-day predictions


NORAD ID: 30068
Int'l Code: 1999-025PV
Perigee: 722.6 km
Apogee: 999.7 km
Inclination: 98.7 °
Period: 102.0 minutes
Semi major axis: 7232 km
RCS: 0.0703 m2 (small)
Launch date: May 10, 1999
Source: People's Republic of China (PRC)
Launch site: Taiyaun Space Center, China (TSC)

Note: This is SATELLITE DEBRIS
Your satellite tracking list
Your tracking list is empty




NASA's NSSDC Master Catalog

Two Line Element Set (TLE):
1 30068U 99025PV  24325.91394704  .00000951  00000-0  46079-3 0  9999
2 30068  98.7087 318.0804 0191546   8.8115 351.6341 14.11560732918855
Source of the keplerian elements: AFSPC